Flock 4q-29

operational
NORAD ID: 58304 Int'l Des: 2023-174 Owner: PLAN Country: US Constellation: planet
LEOCIRCULARRETROGRADESSO

关于 Flock 4q-29

正在加载描述...

实时位置

正在加载3D地球...

即将过境

高度历史

Altitude vs Time

uPlot chart will show altitude changes over time

两行轨道根数

1 58304U 23174BA 26062.19084119 .00039482 00000-0 72771-3 0 9999
2 58304 97.3948 150.8029 0007964 160.9454 199.2096 15.49009126129311
Epoch: Mar 3, 2026 • Age: 24 hours

当前状态

高度 423.1 km
速度 7.67 km/s
星下点 51.28°N, 176.92°W
发射日期 Nov 11, 2023
运行时间 2.3 years
类型 earth observation

技术详情

分类 Payload
质量 5.70 kg
干质量 5.70 kg
总质量 5.70 kg
长度 0.30 m
直径 0.10 m
跨度 0.30 m
形状 Box+2 pan
制造商 PLAN
平台类型 Cubesat 3U
阶段状态 In Orbit
所有者/国家 PLAN/US

大型星座

Loading constellations...